Weather History for KCCY - November, 2013

Change the Weather History Date:

Wednesday, November 27, 2013

  Actual Average (KMCW) Record (KMCW)
Temperature  
Mean Temperature 16 °F 27 °F  
Max Temperature 24 °F 36 °F 71 °F (1998)
Min Temperature 8 °F 18 °F -10 °F (1897)
Degree Days  
Heating Degree Days 49 38  
Month to date heating degree days 824  
Since 1 July heating degree days 1562  
Cooling Degree Days 0 0  
Month to date cooling degree days 0  
Year to date cooling degree days 616  
Moisture  
Dew Point 6 °F    
Average Humidity 66    
Maximum Humidity 79    
Minimum Humidity 43    
Precipitation  
Precipitation 0.00 in 0.05 in 1.07 in (1935)
Month to date precipitation 1.72  
Year to date precipitation 33.80  
Snow  
Snow 0.00 in 0.30 in 4.30 in (1995)
Month to date snowfall 3.6  
Since 1 July snowfall 4.0  
Since 1 September snowfall 4.0  
Snow Depth -    
Sea Level Pressure  
Sea Level Pressure 30.24 in    
Wind  
Wind Speed 9 mph (SW)    
Max Wind Speed 14 mph    
Max Gust Speed 12 mph    
Visibility 10 miles    
Events      
T = Trace of Precipitation, MM = Missing Value Source: NWS Daily Summary

Daily Weather History Graph

Daily Weather History Graph

Search for Another Location

Airport or City:

Trip Planner

Search our weather history database for the weather conditions in past years. The results will help you decide how hot, cold, wet, or windy it might be!

Date:

Astronomy

Nov. 27, 2013 Rise Set
Actual Time 7:18 AM CST 4:38 PM CST
Civil Twilight 6:46 AM CST 5:09 PM CST
Nautical Twilight 6:11 AM CST 5:44 PM CST
Astronomical Twilight 5:37 AM CST 6:18 PM CST
Moon 1:12 AM CST (11/27) 1:23 PM CST (11/27)
Length of Visible Light 10h 23m
Length of Day
9h 20m
Waning Crescent, 31% of the Moon is Illuminated
Nov 27
Waning Crescent
Dec 2
New
Dec 9
First Quarter
Dec 17
Full
Dec 25
Last Quarter

Hourly Weather History & Observations

Time (CST) Temp. Windchill Dew Point Humidity Pressure Visibility Wind Dir Wind Speed Gust Speed Precip Events Conditions
12:35 AM 12.2 °F -1.0 °F 5.0 °F 73% 30.31 in 10.0 mi NNW 10.4 mph - N/A   Clear
12:55 AM 12.2 °F -1.0 °F 5.0 °F 73% 30.31 in 10.0 mi NNW 10.4 mph - N/A   Clear
1:15 AM 12.2 °F -1.0 °F 5.0 °F 73% 30.31 in 10.0 mi NNW 10.4 mph - N/A   Clear
1:35 AM 12.2 °F -1.0 °F 5.0 °F 73% 30.31 in 10.0 mi NNW 10.4 mph - N/A   Clear
1:55 AM 12.2 °F -1.0 °F 5.0 °F 73% 30.32 in 10.0 mi NNW 10.4 mph - N/A   Clear
2:15 AM 12.2 °F -1.0 °F 5.0 °F 73% 30.32 in 10.0 mi NNW 10.4 mph - N/A   Clear
2:35 AM 12.2 °F 0.7 °F 5.0 °F 73% 30.32 in 10.0 mi NNW 8.1 mph - N/A   Clear
2:55 AM 12.2 °F -0.2 °F 5.0 °F 73% 30.32 in 10.0 mi NNW 9.2 mph - N/A   Clear
3:15 AM 12.2 °F -0.2 °F 5.0 °F 73% 30.33 in 10.0 mi NW 9.2 mph - N/A   Clear
3:35 AM 10.4 °F -4.1 °F 5.0 °F 79% 30.32 in 10.0 mi NNW 11.5 mph - N/A   Clear
3:55 AM 10.4 °F -3.3 °F 3.2 °F 73% 30.32 in 10.0 mi NNW 10.4 mph - N/A   Clear
4:15 AM 10.4 °F -4.1 °F 3.2 °F 73% 30.32 in 10.0 mi NNW 11.5 mph - N/A   Clear
4:35 AM 10.4 °F -3.3 °F 3.2 °F 73% 30.32 in 10.0 mi NNW 10.4 mph - N/A   Clear
4:55 AM 10.4 °F -3.3 °F 3.2 °F 73% 30.32 in 10.0 mi NNW 10.4 mph - N/A   Clear
5:15 AM 10.4 °F -1.5 °F 3.2 °F 73% 30.33 in 10.0 mi NW 8.1 mph - N/A   Clear
5:35 AM 10.4 °F -2.4 °F 3.2 °F 73% 30.33 in 10.0 mi NW 9.2 mph - N/A   Clear
5:55 AM 10.4 °F -2.4 °F 3.2 °F 73% 30.34 in 10.0 mi NW 9.2 mph - N/A   Clear
6:15 AM 10.4 °F -1.5 °F 3.2 °F 73% 30.34 in 10.0 mi NNW 8.1 mph - N/A   Clear
6:35 AM 8.6 °F -2.6 °F 3.2 °F 79% 30.34 in 10.0 mi NNW 6.9 mph - N/A   Clear
6:55 AM 8.6 °F 0.1 °F 3.2 °F 79% 30.34 in 10.0 mi NW 4.6 mph - N/A   Clear
7:15 AM 8.6 °F 0.1 °F 3.2 °F 79% 30.34 in 10.0 mi NW 4.6 mph - N/A   Clear
7:35 AM 8.6 °F -1.3 °F 3.2 °F 79% 30.34 in 10.0 mi NW 5.8 mph - N/A   Clear
7:55 AM 8.6 °F -2.6 °F 3.2 °F 79% 30.34 in 10.0 mi NW 6.9 mph - N/A   Clear
8:15 AM 10.4 °F -0.4 °F 5.0 °F 79% 30.35 in 10.0 mi NW 6.9 mph - N/A   Clear
8:35 AM 12.2 °F -0.2 °F 5.0 °F 73% 30.34 in 10.0 mi NNW 9.2 mph - N/A   Clear
8:55 AM 12.2 °F 2.9 °F 5.0 °F 73% 30.34 in 10.0 mi North 5.8 mph - N/A   Clear
9:15 AM 14.0 °F 8.2 °F 5.0 °F 67% 30.34 in 10.0 mi Variable 3.5 mph - N/A   Partly Cloudy
9:35 AM 14.0 °F 5.1 °F 6.8 °F 73% 30.34 in 10.0 mi North 5.8 mph - N/A   Clear
9:55 AM 15.8 °F 8.6 °F 6.8 °F 68% 30.33 in 10.0 mi NNW 4.6 mph - N/A   Clear
10:15 AM 15.8 °F 8.6 °F 6.8 °F 68% 30.33 in 10.0 mi North 4.6 mph - N/A   Clear
10:35 AM 17.6 °F 10.7 °F 6.8 °F 63% 30.34 in 10.0 mi NNE 4.6 mph - N/A   Clear
10:55 AM 19.4 °F - 6.8 °F 58% 30.32 in 10.0 mi Calm Calm - N/A   Clear
11:15 AM 19.4 °F - 6.8 °F 58% 30.31 in 10.0 mi Calm Calm - N/A   Clear
11:35 AM 19.4 °F - 6.8 °F 58% 30.30 in 10.0 mi Calm Calm - N/A   Clear
11:55 AM 21.2 °F - 5.0 °F 50% 30.29 in 10.0 mi Calm Calm - N/A   Clear
12:15 PM 21.2 °F - 5.0 °F 50% 30.27 in 10.0 mi Calm Calm 11.5 mph N/A   Clear
12:35 PM 23.0 °F 17.0 °F 5.0 °F 46% 30.26 in 10.0 mi Variable 4.6 mph - N/A   Clear
12:55 PM 23.0 °F 17.0 °F 5.0 °F 46% 30.25 in 10.0 mi SSW 4.6 mph 11.5 mph N/A   Clear
1:15 PM 23.0 °F 13.1 °F 6.8 °F 50% 30.23 in 10.0 mi South 9.2 mph - N/A   Clear
1:35 PM 23.0 °F 11.7 °F 6.8 °F 50% 30.23 in 10.0 mi SSW 11.5 mph - N/A   Partly Cloudy
1:55 PM 24.8 °F 14.6 °F 5.0 °F 43% 30.22 in 10.0 mi SSW 10.4 mph - N/A   Clear
2:15 PM 23.0 °F 12.4 °F 6.8 °F 50% 30.21 in 10.0 mi South 10.4 mph - N/A   Clear
2:35 PM 23.0 °F 11.7 °F 5.0 °F 46% 30.20 in 10.0 mi South 11.5 mph - N/A   Clear
2:55 PM 23.0 °F 11.1 °F 6.8 °F 50% 30.19 in 10.0 mi SSW 12.7 mph - N/A   Scattered Clouds
3:15 PM 23.0 °F 11.1 °F 5.0 °F 46% 30.21 in 10.0 mi South 12.7 mph - N/A   Partly Cloudy
3:35 PM 21.2 °F 9.5 °F 5.0 °F 50% 30.19 in 10.0 mi SSW 11.5 mph - N/A   Partly Cloudy
3:55 PM 21.2 °F 9.5 °F 5.0 °F 50% 30.19 in 10.0 mi South 11.5 mph - N/A   Scattered Clouds
4:15 PM 21.2 °F 10.1 °F 6.8 °F 54% 30.18 in 10.0 mi South 10.4 mph - N/A   Mostly Cloudy
4:35 PM 19.4 °F 8.6 °F 6.8 °F 58% 30.17 in 10.0 mi South 9.2 mph - N/A   Partly Cloudy
4:55 PM 19.4 °F 8.6 °F 6.8 °F 58% 30.16 in 10.0 mi South 9.2 mph - N/A   Scattered Clouds
5:15 PM 19.4 °F 9.5 °F 8.6 °F 63% 30.15 in 10.0 mi SSE 8.1 mph - N/A   Partly Cloudy
5:35 PM 19.4 °F 8.6 °F 8.6 °F 63% 30.14 in 10.0 mi SE 9.2 mph - N/A   Clear
5:55 PM 17.6 °F 8.2 °F 8.6 °F 68% 30.15 in 10.0 mi SSE 6.9 mph - N/A   Scattered Clouds
6:15 PM 17.6 °F 6.4 °F 8.6 °F 68% 30.14 in 10.0 mi SSE 9.2 mph - N/A   Partly Cloudy
6:35 PM 17.6 °F 5.7 °F 8.6 °F 68% 30.11 in 10.0 mi SE 10.4 mph - N/A   Clear
6:55 PM 17.6 °F 4.3 °F 8.6 °F 68% 30.10 in 10.0 mi SSE 12.7 mph - N/A   Clear
7:15 PM 17.6 °F 5.7 °F 8.6 °F 68% 30.11 in 10.0 mi SSE 10.4 mph - N/A   Partly Cloudy
7:35 PM 17.6 °F 8.2 °F 8.6 °F 68% 30.13 in 10.0 mi SSE 6.9 mph - N/A   Mostly Cloudy
7:55 PM 17.6 °F 6.4 °F 8.6 °F 68% 30.13 in 10.0 mi SE 9.2 mph - N/A   Overcast
8:15 PM 17.6 °F 7.3 °F 8.6 °F 68% 30.14 in 10.0 mi SE 8.1 mph - N/A   Mostly Cloudy
8:35 PM 17.6 °F 7.3 °F 8.6 °F 68% 30.13 in 10.0 mi SE 8.1 mph - N/A   Clear
8:55 PM 17.6 °F 5.7 °F 8.6 °F 68% 30.13 in 10.0 mi SE 10.4 mph - N/A   Partly Cloudy
9:15 PM 17.6 °F 5.0 °F 8.6 °F 68% 30.13 in 10.0 mi SE 11.5 mph - N/A   Partly Cloudy
9:35 PM 17.6 °F 5.0 °F 8.6 °F 68% 30.12 in 10.0 mi SE 11.5 mph - N/A   Clear
9:55 PM 17.6 °F 5.0 °F 8.6 °F 68% 30.11 in 10.0 mi SE 11.5 mph - N/A   Clear
10:15 PM 17.6 °F 4.3 °F 8.6 °F 68% 30.11 in 10.0 mi SE 12.7 mph - N/A   Clear
10:35 PM 17.6 °F 4.3 °F 8.6 °F 68% 30.10 in 10.0 mi SE 12.7 mph - N/A   Clear
10:55 PM 17.6 °F 5.0 °F 8.6 °F 68% 30.10 in 10.0 mi SE 11.5 mph - N/A   Partly Cloudy
11:15 PM 17.6 °F 3.7 °F 8.6 °F 68% 30.08 in 10.0 mi SE 13.8 mph - N/A   Scattered Clouds
11:35 PM 17.6 °F 5.0 °F 8.6 °F 68% 30.07 in 10.0 mi SE 11.5 mph - N/A   Mostly Cloudy
11:55 PM 17.6 °F 4.3 °F 8.6 °F 68% 30.07 in 10.0 mi SE 12.7 mph - N/A   Mostly Cloudy